Location: Bletchingley
(51.2333°N, 0.1000°W)
Time: 17:28:28
(UTC+00:00)

H-2A R/B - Pass Details

Date: 18 September 2020
Orbit: 734 x 836 km, 98.2° (Epoch: 30 October)

Event Time Altitude Azimuth Distance (km) Brightness Sun altitude
Rises 19:14:32 0° 173° (S) 3,162 5.0 -11.2°
Reaches altitude 10° 19:16:48 10° 177° (S) 2,252 4.2 -11.6°
Maximum altitude 19:21:42 63° 258° (WSW) 845 2.5 -12.3°
Drops below altitude 10° 19:26:46 10° 340° (NNW) 2,321 5.1 -13.1°
Sets 19:29:09 0° 344° (NNW) 3,268 5.8 -13.4°
